This demonstration page uses our WeatherBlox Daily Observations layout. Learn more.

39.01783, -85.05884

Hourly Observations for August 1, 2020

Temp ( °F °C ) Dew Point ( °F °C ) Humidity (%) Winds ( mph kmh ) Pressure ( in mb ) Visibility ( mi km ) Precip ( " mm )
12:52 am 00:52 Cloudy 76 24.4 64 17.8 67 67 E 12 19 29.84 1010 10 16.0934 0 0
1:30 am 01:30 Cloudy 76 24.4 63 17.2 64 64 E 9 15 29.82 1010 10 16.0934 0 0
1:52 am 01:52 Cloudy 75 23.9 63 17.2 66 66 E 9 15 29.83 1010 10 16.0934 0 0
2:52 am 02:52 Cloudy 74 23.3 64 17.8 71 71 E 7 11 29.82 1010 10 16.0934 0 0
3:52 am 03:52 Cloudy 73 22.8 65 18.3 76 76 E 8 13 29.8 1009 10 16.0934 0.001 0.001
4:52 am 04:52 Cloudy 72 22.2 66 18.9 82 82 E 6 9 29.81 1009 10 16.0934 0 0
4:54 am 04:54 Cloudy 72 22.2 66 18.9 82 82 E 6 9 29.81 1010 10 16.0934 0 0
5:40 am 05:40 Mostly Cloudy 72 22.2 68 20 87 87 SE 7 11 29.8 1009 10 16.0934 0 0
5:52 am 05:52 Mostly Cloudy 72 22.2 69 20.6 91 91 SSE 7 11 29.8 1009 10 16.0934 0 0
6:26 am 06:26 Cloudy 73 22.8 69 20.6 87 87 S 6 9 29.81 1009 10 16.0934 0 0
6:31 am 06:31 Cloudy 73 22.8 69 20.6 87 87 S 6 9 29.81 1009 10 16.0934 0 0
6:52 am 06:52 Cloudy 73 22.8 69 20.6 87 87 S 7 11 29.81 1009 10 16.0934 0 0
7:52 am 07:52 Mostly Cloudy 73 22.8 70 21.1 90 90 S 6 9 29.8 1009 10 16.0934 0 0
8:52 am 08:52 Cloudy 73 22.8 70 21.1 90 90 SSW 5 7 29.82 1010 10 16.0934 0 0
9:52 am 09:52 Mostly Cloudy 76 24.4 70 21.1 82 82 S 9 15 29.82 1010 10 16.0934 0 0
10:52 am 10:52 Mostly Cloudy 78 25.6 70 21.1 76 76 S 7 11 29.82 1010 10 16.0934 0 0
11:52 am 11:52 Cloudy 79 26.1 70 21.1 74 74 S 8 13 29.81 1010 10 16.0934 0 0
12:52 pm 12:52 Mostly Cloudy 79 26.1 71 21.7 77 77 S 7 11 29.8 1009 10 16.0934 0.001 0.001
1:52 pm 13:52 Mostly Cloudy 84 28.9 72 22.2 67 67 S 10 17 29.77 1008 10 16.0934 0 0
1:59 pm 13:59 Mostly Cloudy 82 27.8 71 21.7 69 69 S 9 15 29.75 1008 10 16.0934 0 0
2:52 pm 14:52 Mostly Cloudy with Light Rain 78 25.6 71 21.7 79 79 SSW 6 9 29.76 1008 10 16.0934 0.03 0.762
3:52 pm 15:52 Mostly Cloudy 83 28.3 72 22.2 70 70 S 9 15 29.73 1007 10 16.0934 0.001 0.001
4:27 pm 16:27 Mostly Cloudy 78 25.6 70 21.1 76 76 W 20 31 29.73 1007 10 16.0934 0 0
4:38 pm 16:38 Mostly Cloudy with Rain 74 23.3 70 21.1 88 88 W 14 22 29.74 1007 1 1.60934 0.001 0.001
4:52 pm 16:52 Cloudy with Heavy Rain 74 23.3 70 21.1 88 88 SSE 6 9 29.75 1007 0.75 1.207005 0.33 8.382
4:54 pm 16:54 Cloudy with Heavy Rain 74 23.3 71 21.7 91 91 SSE 8 13 29.75 1007 1 1.60934 0.02 0.508
5:00 pm 17:00 Cloudy with Light Rain 75 23.9 72 22.2 90 90 SSE 8 13 29.74 1007 10 16.0934 0.07 1.778
5:11 pm 17:11 Mostly Cloudy with Nearby Thunderstorms 76 24.4 71 21.7 85 85 SE 8 13 29.73 1007 10 16.0934 0.07 1.778
5:23 pm 17:23 Partly Cloudy 79 26.1 71 21.7 77 77 SSE 9 15 29.72 1006 10 16.0934 0.07 1.778
5:49 pm 17:49 Mostly Cloudy with Rain 75 24 72 22 89 89 VRB 6 9 29.74 1007 1.25 2.011675 0.07 1.778
5:52 pm 17:52 Cloudy with Heavy Rain 75 23.9 71 21.7 88 88 WSW 5 7 29.73 1007 10 16.0934 0.08 2.032
6:30 pm 18:30 Cloudy 78 25.6 71 21.7 79 79 Calm 29.72 1006 10 16.0934 0.09 2.286
6:43 pm 18:43 Cloudy 77 25 70 21.1 79 79 VRB 3 6 29.72 1007 1 1.60934 0.09 2.286
6:48 pm 18:48 Cloudy with Nearby Thunderstorms 75 24 70 21 83 83 Calm 29.73 1007 10 16.0934 0.14 3.556
6:50 pm 18:50 Cloudy with Light Thunderstorms 75 24 70 21 83 83 WSW 7 11 29.73 1007 10 16.0934 0.24 6.096
6:52 pm 18:52 Cloudy with Rain 75 23.9 70 21.1 84 84 WSW 9 15 29.74 1007 10 16.0934 0.25 6.35
6:57 pm 18:57 Cloudy with Heavy Thunderstorms 74 23.3 71 21.7 91 91 SW 13 20 29.75 1007 0.5 0.80467 0.06 1.524
7:00 pm 19:00 Cloudy with Heavy Thunderstorms 74 23.3 71 21.7 91 91 SW 17 28 29.75 1007 0.25 0.402335 0.17 4.318
7:13 pm 19:13 Cloudy with Rain 73 22.8 70 21.1 90 90 SW 12 19 29.75 1007 6 9.65604 0.49 12.446
7:24 pm 19:24 Cloudy with Light Rain 73 22.8 69 20.6 87 87 SW 8 13 29.74 1007 10 16.0934 0.52 13.208
7:52 pm 19:52 Cloudy 73 22.8 70 21.1 90 90 SW 5 7 29.74 1007 10 16.0934 0.52 13.208
8:52 pm 20:52 Cloudy with Light Rain 72 22.2 70 21.1 94 94 S 8 13 29.75 1008 10 16.0934 0.03 0.762
9:31 pm 21:31 Cloudy 72 22.2 70 21.1 94 94 S 5 7 29.75 1007 10 16.0934 0.03 0.762
9:52 pm 21:52 Cloudy 73 22.8 70 21.1 90 90 S 6 9 29.75 1008 10 16.0934 0.03 0.762
10:52 pm 22:52 Cloudy 72 22.2 69 20.6 91 91 SSW 9 15 29.76 1008 10 16.0934 0.001 0.001
11:52 pm 23:52 Cloudy with Light Rain 72 22.2 70 21.1 94 94 SW 6 9 29.74 1007 7 11.26538 0.001 0.001
11:54 pm 23:54 Mostly Cloudy with Rain 72 22.2 70 21.1 94 94 WSW 7 11 29.74 1007 6 9.65604 0.001 0.001

Powered by AerisWeather